AirNav   Air Wisconsin Up To $57,000 Bonus
 
 512 users online  

CO15 Kelly Air Park
Elbert, Colorado, USA

GOING TO ELBERT?


FAA INFORMATION EFFECTIVE 01 DECEMBER 2022

Location

FAA Identifier: CO15
Lat/Long: 39-13-28.8000N 104-38-23.6400W
39-13.480000N 104-38.394000W
39.2246667,-104.6399000
(estimated)
Elevation: 7040 ft. / 2146 m (estimated)
Variation: 11E (1985)
From city: 6 miles W of ELBERT, CO
Time zone: UTC -7 (UTC -6 during Daylight Saving Time)
Zip code: 80106

Airport Operations

Airport use: Private use. Permission required prior to landing
Activation date: 11/1988
Control tower: no
ARTCC: DENVER CENTER
FSS: DENVER FLIGHT SERVICE STATION
Attendance: UNATNDD
Wind indicator: yes
Segmented circle: yes

Airport Communications

UNICOM: 123.05
WX AWOS-3PT at FLY (17 nm S): 118.450 (719-683-5371)

Nearby radio navigation aids

VOR radial/distance  VOR name  Freq  Var
BRKr351/16.8BLACK FOREST VOR/DME112.5008E
FQFr171/27.9FALCON VORTAC116.3011E
FCSr357/33.1BUTTS VOR/DME108.8012E
DENr170/35.3DENVER VOR/DME117.9008E

 
NDB name  Hdg/Dist  Freq  Var  ID
IRONHORSE001/33.233508EIHS .. .... ...

Airport Services

Runway Information

Runway 17/35

Dimensions: 3800 x 36 ft. / 1158 x 11 m
Surface: asphalt
RUNWAY 17  RUNWAY 35
Traffic pattern: leftright

Runway 9/27

Dimensions: 1700 x 50 ft. / 518 x 15 m
Surface: gravel
Operational restrictions: RY 09 NOT RECOMMENDED FOR TAKEOFF OR LANDING.
RUNWAY 9  RUNWAY 27
Traffic pattern: rightleft

Airport Ownership and Management from official FAA records

Ownership: Privately-owned
Owner: KELLY AIR PARK ASSN
24652 DAVID C JOHNSON LOOP
ELBERT, CO 80106-9512
Phone 303-648-3461
OR 303-648-0056.
Manager: FRANK NIEHUS
24652 DAVID C JOHNSON LOOP
ELBERT, CO 80106-9512
Phone 303-434-5257
OTR CTC - ALAN HOOVER 574-551-2656.

Airport Operational Statistics

Aircraft based on the field: 54
Single engine airplanes: 30
Gliders airplanes: 24
    

Additional Remarks

GLIDER ACTIVITY ON & INVOF ARPT.
WX AWOS AT MONUMENT HILL ON SITE: 134.375 (303-648-3479).
ULTRALIGHT ACTIVITY PROHIBITED
FOR CD CTC DENVER APCH AT 303-342-1916.
AEROBATIC PRACTICE AREA 2.7 NM EAST FM 500 FT AGL TO 4000 FT AGL; MNT 123.05.

Instrument Procedures

There are no published instrument procedures at CO15.

Some nearby airports with instrument procedures:

KAPA - Centennial Airport (23 nm NW)
KCOS - City of Colorado Springs Municipal Airport (25 nm S)
KBKF - Buckley Space Force Base (29 nm N)
KCFO - Colorado Air and Space Port Airport (34 nm N)
KDEN - Denver International Airport (38 nm N)
 
Loc | Ops | Rwys | IFR | FBO | Links
Com | Nav | Svcs | Stats | Notes

AirBoss

 
Area around CO15 (Kelly Air Park)
 
Road maps at: MapQuest Bing Google
 
Aerial photo
WARNING: Photo may not be current or correct
Aerial photo of CO15 (Kelly Air Park)
Taken early June 2010

Do you have a better or more recent aerial photo of Kelly Air Park that you would like to share? If so, please send us your photo.

 
Sectional chart

 
Airport distance calculator
Flying to Kelly Air Park? Find the distance to fly.

From to CO15

Sunrise and sunset
Times for 03-Dec-2022
 Local
(UTC-7)
 Zulu
(UTC)
Morning civil twilight06:3213:32
Sunrise07:0214:02
Sunset16:3523:35
Evening civil twilight17:0400:04

Current date and time
Zulu (UTC)  04-Dec-2022 06:02:38
Local (UTC-7)  03-Dec-2022 23:02:38
 
METAR
KMNH 040535Z AUTO 00000KT 10SM CLR 02/M06 A3022 RMK AO2
KFLY 
17nm S 
040555Z AUTO 01005KT 10SM CLR 03/M06 A3023 RMK AO2 T00311057 10057 21019
KAFF 
18nm SW 
040555Z AUTO 15004KT 10SM FEW070 01/M10 A3019 RMK AO2 SLP259 T00081104 10108 21014 53012
TAF
KAFF 
18nm SW 
031925Z 0318/0418 15009KT 9999 SCT150 BKN250 520102 560309 QNH3016INS BECMG 0401/0402 06009KT 9999 SCT150 BKN250 530109 QNH3015INS WND 240V120 ROTOR CONDS EXIST BECMG 0416/0417 15010G15KT 9999 SCT150 BKN250 520209 QNH3014INS TX06/0321Z TNM04/0318Z LAST NO AMDS AFT 0319 NEXT 0512
NOTAMs
Click for the latest NOTAMs
NOTAMs are issued by the DoD/FAA and will open in a separate window not controlled by AirNav.

 

 
 

Would you like to see your business listed on this page?

 If your business provides an interesting product or service to pilots, flight crews, aircraft, or users of the Kelly Air Park, you should consider listing it here.  To start the listing process, click on the button below
 
Add a business
 

Other Pages about Kelly Air Park

www.kellyairpark.com
 
Update a link
 
Copyright © AirNav, LLC. All rights reserved. Privacy Policy  Contact